KG4QWI Weather Reports


time (UTC)temp
C
wind
direction
speed
KPH
gust
KPH
rain 1hr
cm
rain 24hr
cm
rain mn
cm
humidity
%
barometer
mb
20260509000539 18 0 0.0 1.6 0.00 0.00 0.00 41 1013.3
20260509000054 18 0 0.0 1.6 0.00 0.00 0.00 42 1013.2
20260508235539 18 0 0.0 1.6 0.00 0.00 0.00 41 1013.3
20260508235039 18 0 0.0 1.6 0.00 0.00 0.00 42 1013.4
20260508234547 19 0 0.0 1.6 0.00 0.00 0.00 42 1013.3
20260508234039 19 0 0.0 0.0 0.00 0.00 0.00 42 1013.2
20260508233539 19 0 0.0 1.6 0.00 0.00 0.00 41 1013.3
20260508233055 20 0 0.0 1.6 0.00 0.00 0.00 40 1013.2
20260508232538 20 0 0.0 1.6 0.00 0.00 0.00 39 1013.2
20260508232038 20 0 0.0 1.6 0.00 0.00 0.00 38 1013.3
20260508231552 20 0 0.0 1.6 0.00 0.00 0.00 38 1013.3
20260508231038 21 0 0.0 3.2 0.00 0.00 0.00 37 1013.3
20260508230540 21 0 0.0 3.2 0.00 0.00 0.00 35 1013.3
20260508230047 21 247 0.0 1.6 0.00 0.00 0.00 35 1013.1
20260508225539 21 0 0.0 4.8 0.00 0.00 0.00 34 1013.2
20260508225039 22 224 0.0 4.8 0.00 0.00 0.00 34 1013.2
20260508224553 22 0 0.0 6.4 0.00 0.00 0.00 33 1013.3
20260508224039 22 237 0.0 6.4 0.00 0.00 0.00 32 1013.3
20260508223538 22 0 1.6 6.4 0.00 0.00 0.00 31 1013.4
20260508223047 22 262 0.0 4.8 0.00 0.00 0.00 32 1013.5
20260508222538 22 221 0.0 4.8 0.00 0.00 0.00 30 1013.4
20260508222038 23 0 0.0 4.8 0.00 0.00 0.00 30 1013.5
20260508221547 23 0 0.0 3.2 0.00 0.00 0.00 31 1013.6
20260508221039 23 0 0.0 6.4 0.00 0.00 0.00 30 1013.5
20260508220539 23 229 0.0 6.4 0.00 0.00 0.00 30 1013.8
20260508220052 23 0 0.0 4.8 0.00 0.00 0.00 31 1013.6
20260508215539 23 0 0.0 4.8 0.00 0.00 0.00 31 1013.6
20260508215038 23 0 0.0 3.2 0.00 0.00 0.00 31 1013.7
20260508214547 23 302 0.0 3.2 0.00 0.00 0.00 28 1013.7
20260508214039 23 0 0.0 6.4 0.00 0.00 0.00 30 1013.7
20260508213538 23 0 0.0 6.4 0.00 0.00 0.00 31 1013.6
20260508213056 23 144 1.6 4.8 0.00 0.00 0.00 29 1013.6
20260508212539 23 304 1.6 4.8 0.00 0.00 0.00 28 1013.8
20260508212040 23 202 0.0 12.9 0.00 0.00 0.00 30 1013.8
20260508211556 23 0 3.2 12.9 0.00 0.00 0.00 30 1013.7
20260508211038 23 0 0.0 4.8 0.00 0.00 0.00 31 1013.6
20260508210539 23 0 0.0 6.4 0.00 0.00 0.00 30 1013.6
20260508210051 23 299 0.0 6.4 0.00 0.00 0.00 29 1013.6
20260508205538 23 0 0.0 3.2 0.00 0.00 0.00 29 1013.5
20260508205038 23 0 0.0 4.8 0.00 0.00 0.00 26 1013.7
20260508204550 23 0 0.0 4.8 0.00 0.00 0.00 27 1013.7
20260508204040 23 0 0.0 4.8 0.00 0.00 0.00 27 1013.8
20260508203538 22 280 0.0 4.8 0.00 0.00 0.00 32 1013.8
20260508203049 22 188 1.6 12.9 0.00 0.00 0.00 29 1013.8
20260508202540 22 18 1.6 12.9 0.00 0.00 0.00 29 1013.8
20260508202038 22 157 4.8 12.9 0.00 0.00 0.00 30 1013.8
20260508201548 22 0 1.6 6.4 0.00 0.00 0.00 31 1013.9
20260508201038 22 222 0.0 6.4 0.00 0.00 0.00 32 1014.0
20260508200539 22 128 1.6 6.4 0.00 0.00 0.00 29 1014.1
20260508200049 22 0 1.6 8.0 0.00 0.00 0.00 28 1014.3
20260508195538 22 143 0.0 8.0 0.00 0.00 0.00 28 1014.3
20260508195039 22 0 1.6 11.3 0.00 0.00 0.00 25 1014.2
20260508194609 22 0 0.0 11.3 0.00 0.00 0.00 28 1014.5
20260508194040 22 0 1.6 9.7 0.00 0.00 0.00 25 1014.6
20260508193539 22 0 0.0 9.7 0.00 0.00 0.00 29 1014.8
20260508193117 22 360 3.2 11.3 0.00 0.00 0.00 26 1014.9
20260508192538 22 0 1.6 11.3 0.00 0.00 0.00 32 1015.1
20260508192040 22 267 1.6 9.7 0.00 0.00 0.00 29 1015.3
20260508191552 22 350 0.0 9.7 0.00 0.00 0.00 28 1015.5
20260508191039 22 184 1.6 6.4 0.00 0.00 0.00 30 1015.6
20260508190540 21 102 0.0 12.9 0.00 0.00 0.00 30 1015.7
20260508185540 20 187 1.6 6.4 0.00 0.00 0.00 30 1015.7
20260508185039 20 129 0.0 16.1 0.00 0.00 0.00 35 1015.7
20260508184549 20 5 4.8 17.7 0.00 0.00 0.00 29 1015.6
20260508184038 21 153 6.4 17.7 0.00 0.00 0.00 27 1015.7
20260508183538 21 171 4.8 16.1 0.00 0.00 0.00 31 1015.9
20260508183051 21 330 4.8 16.1 0.00 0.00 0.00 32 1016.1
20260508182539 22 0 3.2 11.3 0.00 0.00 0.00 31 1015.9
20260508182038 22 167 1.6 6.4 0.00 0.00 0.00 31 1016.1
20260508181554 21 0 0.0 6.4 0.00 0.00 0.00 35 1016.1
20260508181039 21 0 1.6 14.5 0.00 0.00 0.00 33 1016.2
20260508180541 21 186 4.8 14.5 0.00 0.00 0.00 35 1016.3
20260508180049 20 192 3.2 8.0 0.00 0.00 0.00 31 1016.3
20260508175538 20 192 3.2 12.9 0.00 0.00 0.00 31 1016.1
20260508175038 20 294 1.6 12.9 0.00 0.00 0.00 33 1016.2
20260508174551 20 107 3.2 12.9 0.00 0.00 0.00 31 1016.2
20260508174039 20 5 1.6 6.4 0.00 0.00 0.00 34 1016.4
20260508173539 19 319 1.6 9.7 0.00 0.00 0.00 36 1016.5
20260508173047 19 0 1.6 9.7 0.00 0.00 0.00 36 1016.7
20260508172541 19 175 3.2 9.7 0.00 0.00 0.00 32 1016.7
20260508172039 19 0 1.6 11.3 0.00 0.00 0.00 31 1016.7
20260508171551 19 302 3.2 11.3 0.00 0.00 0.00 30 1016.8
20260508171038 19 321 4.8 9.7 0.00 0.00 0.00 29 1017.0
20260508170539 19 340 4.8 9.7 0.00 0.00 0.00 28 1016.9
20260508170057 19 313 1.6 6.4 0.00 0.00 0.00 31 1017.1
20260508165538 18 337 1.6 8.0 0.00 0.00 0.00 30 1017.2
20260508165038 18 286 1.6 8.0 0.00 0.00 0.00 31 1017.2
20260508164548 18 165 1.6 12.9 0.00 0.00 0.00 35 1017.4
20260508164039 17 186 3.2 12.9 0.00 0.00 0.00 39 1017.4
20260508163540 17 146 4.8 11.3 0.00 0.00 0.00 36 1017.5
20260508163059 17 331 3.2 8.0 0.00 0.00 0.00 36 1017.7
20260508162551 17 325 3.2 12.9 0.00 0.00 0.00 35 1017.9
20260508162040 17 0 3.2 16.1 0.00 0.00 0.00 37 1017.9
20260508161555 17 166 8.0 16.1 0.00 0.00 0.00 39 1018.0
20260508161038 17 171 6.4 16.1 0.00 0.00 0.00 42 1018.1
20260508160540 17 207 4.8 16.1 0.00 0.00 0.00 42 1018.0
20260508160051 17 136 1.6 9.7 0.00 0.00 0.00 40 1018.1
20260508155539 16 340 3.2 16.1 0.00 0.00 0.00 38 1018.1
20260508155039 16 119 8.0 16.1 0.00 0.00 0.00 40 1018.2
20260508154553 17 159 3.2 8.0 0.00 0.00 0.00 43 1018.2
20260508154038 16 0 1.6 9.7 0.00 0.00 0.00 41 1018.3
20260508153539 16 105 1.6 9.7 0.00 0.00 0.00 40 1018.4
20260508153102 16 21 3.2 9.7 0.00 0.00 0.00 40 1018.4
20260508152538 17 58 1.6 8.0 0.00 0.00 0.00 39 1018.4
20260508152040 17 5 3.2 12.9 0.00 0.00 0.00 38 1018.5
20260508151557 16 340 3.2 12.9 0.00 0.00 0.00 41 1018.7
20260508151039 16 165 4.8 14.5 0.00 0.00 0.00 44 1018.6
20260508150539 16 172 8.0 14.5 0.00 0.00 0.00 47 1018.5
20260508150049 16 144 4.8 14.5 0.00 0.00 0.00 47 1018.5
20260508145538 16 153 3.2 11.3 0.00 0.03 0.00 46 1018.6
20260508145039 16 151 1.6 11.3 0.00 0.03 0.00 47 1018.5
20260508144549 16 134 6.4 11.3 0.00 0.03 0.00 45 1018.6
20260508144039 16 348 1.6 11.3 0.00 0.03 0.00 48 1018.4
20260508143539 15 0 1.6 11.3 0.00 0.03 0.00 47 1018.5
20260508143111 15 157 4.8 12.9 0.00 0.03 0.00 46 1018.5
20260508142539 15 0 3.2 14.5 0.00 0.03 0.00 54 1018.4
20260508142039 15 142 8.0 14.5 0.00 0.03 0.00 52 1018.6
20260508141557 15 132 9.7 14.5 0.00 0.03 0.00 51 1018.7
20260508141039 15 124 3.2 9.7 0.00 0.03 0.00 56 1018.6
20260508140539 15 154 3.2 9.7 0.00 0.03 0.00 54 1018.7
20260508135539 15 147 3.2 8.0 0.00 0.03 0.00 60 1018.6
20260508135038 15 167 1.6 8.0 0.00 0.03 0.00 59 1018.7
20260508134551 14 82 3.2 9.7 0.00 0.03 0.00 61 1018.6
20260508134039 14 151 4.8 9.7 0.00 0.03 0.00 63 1018.6
20260508133538 13 169 3.2 8.0 0.00 0.03 0.00 65 1018.5
20260508133049 13 155 3.2 8.0 0.00 0.03 0.00 66 1018.6
20260508132539 13 54 1.6 6.4 0.00 0.03 0.00 65 1018.5
20260508132039 13 105 1.6 8.0 0.00 0.03 0.00 64 1018.5
20260508131549 13 56 3.2 8.0 0.00 0.03 0.00 65 1018.4
20260508131039 13 118 3.2 8.0 0.00 0.03 0.00 66 1018.4
20260508130540 12 134 1.6 6.4 0.00 0.03 0.00 65 1018.4
20260508130053 12 127 0.0 8.0 0.00 0.03 0.00 65 1018.4
20260508125538 12 114 3.2 9.7 0.00 0.05 0.00 66 1018.3
20260508125038 12 0 1.6 9.7 0.00 0.05 0.00 64 1018.2
20260508124551 12 72 3.2 9.7 0.00 0.05 0.00 64 1018.3
20260508124038 12 333 1.6 6.4 0.00 0.05 0.00 63 1018.4
20260508123538 11 109 1.6 4.8 0.00 0.05 0.00 63 1018.4
20260508123048 11 43 1.6 4.8 0.00 0.05 0.00 65 1018.3
20260508122538 11 0 0.0 3.2 0.00 0.05 0.00 70 1018.3
20260508122040 11 0 0.0 1.6 0.00 0.05 0.00 72 1018.3
20260508121547 10 0 0.0 3.2 0.00 0.05 0.00 73 1018.3
20260508121037 10 0 0.0 3.2 0.00 0.05 0.00 75 1018.2
20260508120539 10 0 0.0 1.6 0.00 0.05 0.00 76 1018.2
20260508120103 9 0 0.0 1.6 0.00 0.05 0.00 76 1018.1
20260508115541 8 0 0.0 1.6 0.00 0.05 0.00 77 1018.1
20260508115042 8 0 0.0 1.6 0.00 0.05 0.00 77 1018.1
20260508114600 8 0 0.0 1.6 0.00 0.05 0.00 78 1018.0
20260508114039 8 0 0.0 1.6 0.00 0.05 0.00 78 1017.9
20260508113539 8 0 0.0 0.0 0.00 0.05 0.00 77 1017.9
20260508113053 7 0 0.0 3.2 0.00 0.05 0.00 77 1017.8
20260508112543 7 0 0.0 3.2 0.00 0.05 0.00 76 1017.7
20260508112038 7 346 0.0 8.0 0.00 0.05 0.00 76 1017.6
20260508111549 7 346 3.2 8.0 0.00 0.05 0.00 75 1017.6
20260508111039 7 345 3.2 6.4 0.00 0.05 0.00 75 1017.5
20260508110538 7 333 3.2 6.4 0.00 0.05 0.00 75 1017.4
20260508110056 7 340 3.2 6.4 0.00 0.05 0.00 75 1017.3
20260508105540 7 342 3.2 6.4 0.00 0.05 0.00 75 1017.2
20260508105040 7 350 4.8 6.4 0.00 0.05 0.00 75 1017.1
20260508104547 7 324 3.2 6.4 0.00 0.05 0.00 75 1017.2
20260508104040 7 336 3.2 4.8 0.00 0.05 0.00 75 1017.0
20260508103538 7 334 1.6 4.8 0.00 0.05 0.00 74 1017.0
20260508103051 7 331 1.6 4.8 0.00 0.05 0.00 74 1016.8
20260508102540 7 346 3.2 4.8 0.00 0.05 0.00 74 1016.9
20260508102039 7 351 1.6 4.8 0.00 0.05 0.00 73 1016.7
20260508101546 7 336 1.6 4.8 0.00 0.05 0.00 73 1016.7
20260508101039 7 360 1.6 6.4 0.00 0.05 0.00 73 1016.7
20260508100540 7 347 1.6 6.4 0.00 0.05 0.00 73 1016.7
20260508095539 7 317 4.8 9.7 0.00 0.08 0.00 72 1016.6
20260508095039 7 325 6.4 9.7 0.00 0.08 0.00 73 1016.6
20260508094548 7 346 6.4 9.7 0.00 0.08 0.00 74 1016.5
20260508094038 7 321 4.8 8.0 0.00 0.08 0.00 74 1016.6
20260508093538 7 319 6.4 8.0 0.00 0.08 0.00 73 1016.6
20260508093046 7 307 6.4 8.0 0.00 0.08 0.00 73 1016.5
20260508092538 7 323 4.8 8.0 0.00 0.08 0.00 73 1016.6
20260508092038 7 312 4.8 6.4 0.00 0.08 0.00 72 1016.6
20260508091608 7 313 1.6 6.4 0.00 0.08 0.00 72 1016.5
20260508091038 7 316 3.2 8.0 0.00 0.08 0.00 72 1016.4
20260508090541 7 318 3.2 8.0 0.00 0.08 0.00 72 1016.5
20260508090052 7 309 4.8 6.4 0.00 0.08 0.00 71 1016.5
20260508085539 8 323 3.2 6.4 0.00 0.08 0.00 71 1016.6
20260508085038 8 323 3.2 6.4 0.00 0.08 0.00 71 1016.7
20260508084551 8 321 3.2 8.0 0.00 0.08 0.00 70 1016.6
20260508084041 8 320 4.8 8.0 0.00 0.08 0.00 70 1016.6
20260508083539 8 325 4.8 8.0 0.00 0.08 0.00 70 1016.6
20260508083047 8 330 3.2 8.0 0.00 0.08 0.00 70 1016.5
20260508082541 8 340 3.2 8.0 0.00 0.08 0.00 70 1016.5
20260508082040 8 341 3.2 8.0 0.00 0.08 0.00 70 1016.5
20260508081609 8 325 3.2 8.0 0.00 0.08 0.00 70 1016.6
20260508081039 8 319 3.2 8.0 0.00 0.08 0.00 70 1016.5
20260508080539 8 332 4.8 8.0 0.00 0.08 0.00 71 1016.5
20260508080048 8 336 3.2 6.4 0.00 0.08 0.00 71 1016.6
20260508075538 8 355 1.6 4.8 0.00 0.10 0.00 71 1016.6
20260508075039 8 348 1.6 4.8 0.00 0.10 0.00 70 1016.7
20260508074549 8 332 3.2 6.4 0.00 0.10 0.00 70 1016.6
20260508074038 8 327 1.6 6.4 0.00 0.10 0.00 70 1016.7
20260508073541 8 324 3.2 6.4 0.00 0.10 0.00 70 1016.7
20260508073051 8 336 3.2 6.4 0.00 0.10 0.00 70 1016.7
20260508072538 8 322 3.2 6.4 0.00 0.10 0.00 70 1016.7
20260508072040 8 333 3.2 6.4 0.00 0.10 0.00 69 1016.7
20260508071552 8 327 3.2 6.4 0.00 0.10 0.00 69 1016.8
20260508071042 8 325 1.6 4.8 0.00 0.10 0.00 68 1016.8
20260508070542 8 327 1.6 4.8 0.00 0.10 0.00 67 1016.6
20260508070050 8 355 1.6 4.8 0.00 0.10 0.00 67 1016.7
20260508065538 8 349 1.6 6.4 0.00 0.10 0.00 67 1016.7
20260508065040 9 325 3.2 6.4 0.00 0.10 0.00 66 1016.7
20260508064548 9 348 3.2 6.4 0.00 0.10 0.00 66 1016.8
20260508064038 9 346 3.2 6.4 0.00 0.10 0.00 66 1016.7
20260508063539 9 327 3.2 8.0 0.00 0.10 0.00 65 1016.7
20260508063056 9 331 3.2 8.0 0.00 0.10 0.00 65 1016.6
20260508062543 9 337 4.8 8.0 0.00 0.10 0.00 65 1016.7
20260508062040 9 342 4.8 8.0 0.00 0.10 0.00 65 1016.6
20260508061549 9 343 4.8 9.7 0.00 0.10 0.00 64 1016.7
20260508061039 10 16 4.8 9.7 0.00 0.10 0.00 64 1016.7
20260508060538 10 334 3.2 9.7 0.00 0.10 0.00 64 1016.8
20260508060106 10 340 4.8 9.7 0.00 0.10 0.00 64 1016.7
20260508055538 10 350 4.8 9.7 0.00 0.20 0.00 64 1016.8
20260508055038 10 352 4.8 9.7 0.00 0.20 0.00 64 1016.7
20260508054633 10 322 4.8 9.7 0.00 0.20 0.00 63 1016.7
20260508054039 10 318 4.8 9.7 0.00 0.20 0.00 63 1016.7
20260508053538 10 345 4.8 12.9 0.00 0.20 0.00 63 1016.7
20260508053053 10 333 6.4 12.9 0.00 0.20 0.00 63 1016.7
20260508052540 10 360 4.8 12.9 0.00 0.20 0.00 63 1016.8
20260508052038 10 332 4.8 12.9 0.00 0.20 0.00 63 1016.9
20260508051549 10 355 6.4 12.9 0.00 0.20 0.00 64 1016.9
20260508051040 10 9 4.8 12.9 0.00 0.20 0.00 64 1017.1
20260508050539 10 352 6.4 14.5 0.00 0.20 0.00 63 1017.1
20260508050050 10 346 6.4 14.5 0.00 0.20 0.00 64 1016.8
20260508045538 10 5 4.8 12.9 0.00 0.25 0.00 64 1016.8
20260508045039 10 355 4.8 12.9 0.00 0.25 0.00 64 1016.7
20260508044551 10 337 4.8 12.9 0.00 0.25 0.00 65 1016.6
20260508044041 10 345 3.2 9.7 0.00 0.25 0.00 65 1016.6
20260508043538 10 346 3.2 9.7 0.00 0.25 0.00 66 1016.6
20260508043056 10 323 3.2 9.7 0.00 0.25 0.00 66 1016.5
20260508042538 10 323 3.2 8.0 0.00 0.25 0.00 67 1016.4
20260508042038 10 323 3.2 8.0 0.00 0.25 0.00 67 1016.5
20260508041554 10 327 3.2 6.4 0.00 0.25 0.00 66 1016.5
20260508041039 10 315 3.2 8.0 0.00 0.25 0.00 66 1016.4
20260508040539 10 322 3.2 8.0 0.00 0.25 0.00 66 1016.3
20260508040045 10 298 3.2 8.0 0.00 0.25 0.00 66 1016.4
20260508035539 10 320 3.2 8.0 0.00 0.28 0.25 66 1016.2
20260508035039 10 324 3.2 6.4 0.00 0.28 0.25 65 1016.2
20260508034552 10 312 1.6 8.0 0.00 0.28 0.25 66 1016.1
20260508034038 11 315 3.2 8.0 0.00 0.28 0.25 66 1016.1
20260508033538 11 320 3.2 8.0 0.00 0.28 0.25 67 1016.1
20260508033047 11 306 3.2 8.0 0.00 0.28 0.25 66 1016.1
20260508032542 11 352 1.6 6.4 0.00 0.28 0.25 67 1016.1
20260508032038 11 312 3.2 6.4 0.00 0.28 0.25 66 1016.2
20260508031552 11 309 3.2 6.4 0.00 0.28 0.25 66 1016.2
20260508031039 11 294 3.2 6.4 0.00 0.28 0.25 64 1016.1
20260508030538 11 333 1.6 6.4 0.00 0.28 0.25 65 1016.0
20260508030047 11 328 3.2 6.4 0.00 0.28 0.25 65 1016.0
20260508025541 11 347 3.2 6.4 0.00 0.36 0.25 65 1016.0
20260508025038 12 324 3.2 6.4 0.00 0.36 0.25 64 1016.0
20260508024554 12 311 1.6 6.4 0.00 0.36 0.25 63 1016.2
20260508024040 12 321 3.2 6.4 0.00 0.36 0.25 63 1016.1
20260508023540 12 305 1.6 8.0 0.00 0.36 0.25 62 1016.0
20260508023050 12 0 1.6 8.0 0.00 0.36 0.25 62 1015.9
20260508022542 12 331 1.6 6.4 0.00 0.36 0.25 61 1015.9
20260508022039 12 331 3.2 6.4 0.00 0.36 0.25 61 1016.1
20260508021547 12 0 1.6 8.0 0.00 0.36 0.25 61 1016.1
20260508021041 12 302 1.6 8.0 0.00 0.36 0.25 61 1016.0
20260508020538 12 342 3.2 8.0 0.00 0.36 0.25 61 1015.9
20260508020058 13 0 3.2 8.0 0.00 0.36 0.25 61 1015.6
20260508015538 13 307 3.2 8.0 0.00 0.38 0.25 61 1015.5
20260508015038 13 325 1.6 8.0 0.00 0.38 0.25 62 1015.5
20260508014549 13 314 3.2 8.0 0.00 0.38 0.25 62 1015.3
20260508014040 13 325 3.2 8.0 0.00 0.38 0.25 62 1015.2
20260508013538 13 313 3.2 6.4 0.00 0.38 0.25 62 1015.1
20260508013049 13 330 1.6 6.4 0.00 0.38 0.25 61 1015.1
20260508012539 13 322 3.2 8.0 0.00 0.38 0.25 61 1015.0
20260508012039 13 313 1.6 8.0 0.00 0.38 0.25 61 1015.0
20260508011551 13 5 3.2 8.0 0.00 0.38 0.25 60 1015.0
20260508011039 13 335 3.2 6.4 0.00 0.38 0.25 59 1014.7
20260508010539 14 335 1.6 6.4 0.00 0.38 0.25 59 1014.7
20260508010050 14 325 3.2 6.4 0.00 0.38 0.25 58 1014.6
20260508005542 14 325 1.6 8.0 0.00 0.43 0.25 58 1014.6
20260508005042 14 0 3.2 12.9 0.00 0.43 0.25 58 1014.6
20260508004548 14 334 3.2 12.9 0.00 0.43 0.25 57 1014.6
20260508004038 14 350 4.8 12.9 0.00 0.43 0.25 58 1014.3
20260508003539 15 350 4.8 9.7 0.00 0.43 0.25 59 1014.4
20260508003043 15 344 4.8 9.7 0.00 0.43 0.25 61 1014.2
20260508002539 15 341 3.2 6.4 0.00 0.43 0.25 64 1014.2
20260508002039 15 320 1.6 4.8 0.00 0.43 0.25 64 1014.2
20260508001547 15 0 0.0 4.8 0.00 0.43 0.25 63 1014.1
20260508001039 15 0 0.0 3.2 0.00 0.43 0.25 63 1014.0